Iridium 66 - Orbit

View from above orbital plane
View from above orbital plane
View from above satellite
View from above satellite

Ground track
Ground track

The orbit data is extracted from the following two-line orbital elements,

1 25289U 98021E   13144.52413958  .00000206  00000-0  66410-4 0  2404
2 25289 086.3963 124.3884 0002296 105.9923 043.4636 14.34213162792215
Epoch (UTC): 24 May 2013 12:34:45
Eccentricity: 0.0002296
inclination: 86.3963°
perigee height: 776 km
apogee height: 779 km
right ascension of ascending node: 124.3884°
argument of perigee: 105.9923°
revolutions per day: 14.34213162
mean anomaly at epoch: 43.4636°
orbit number at epoch: 79221

The dashed part of the orbit path shows where the satellite is in the earth's shadow,  

Developed and maintained by Chris Peat, Heavens-Above GmbH. Please read the updated FAQ before sending e-mail. Imprint. DLR